User: anonymous   Login
Location: Goheenville
(40.9070°N, 79.3720°W)
Time: 18:15:46
(UTC-04:00)
Language:

Cosmos 1633 - Orbit

View from above orbital plane
View from above orbital plane
View from above satellite
View from above satellite

Ground track
Ground track

The orbit data is extracted from the following two-line orbital elements,

1 15592U 85020A   17289.35268276  .00002187  00000-0  76382-4 0  9991
2 15592  82.5408 197.8839 0015222 105.9784 254.3134 15.28903540782806
Epoch (UTC): 16 October 2017 08:27:51
Eccentricity: 0.0015222
inclination: 82.5408°
perigee height: 468 km
apogee height: 489 km
right ascension of ascending node: 197.8839°
argument of perigee: 105.9784°
revolutions per day: 15.28903540
mean anomaly at epoch: 254.3134°
orbit number at epoch: 78280

The dashed part of the orbit path shows where the satellite is in the earth's shadow,  

DLR